Dewpoint
57 61 73 72 70 68 68 67 66 65 65 64 63 63 62 62 61 60 59 58 58 58 59 59 58 58 59 60 61 62 64 66 69 71 71 71 73 73 73 73 74 72 74
56 62 73 72 71 69 69 68 68 68 67 65 64 64 64 64 63 62 62 61 60 60 61 61 60 60 59 62 62 61 62 64 66 70 71 71 72 72 73 73 74 73 74
55 63 70 72 72 71 71 70 70 69 68 66 65 64 64 65 64 64 64 64 63 62 62 63 63 62 61 61 64 64 62 63 65 68 71 71 71 72 72 73 74 74 74
56 64 69 73 72 71 71 71 70 70 68 67 66 65 65 65 66 65 65 64 64 64 64 64 64 64 64 62 62 67 65 63 64 65 70 71 70 71 72 73 73 73 73
58 64 68 73 72 72 71 71 71 70 70 67 67 66 67 66 67 67 65 64 64 64 64 65 64 64 65 64 62 65 68 64 64 64 69 70 70 70 71 72 73 73 74
60 64 68 72 72 72 72 72 71 70 70 68 68 68 68 68 67 67 66 65 65 64 65 64 64 64 65 66 65 65 66 67 65 65 68 69 70 70 71 73 72 72 73
61 64 67 72 72 72 72 72 72 71 71 70 68 68 68 68 67 67 66 66 65 64 65 64 64 65 66 66 66 67 65 67 66 66 67 68 70 70 71 72 72 73 73
60 64 67 71 72 72 72 72 72 72 71 71 70 70 69 68 67 66 66 65 65 65 64 64 65 66 67 67 66 67 65 67 66 66 66 68 69 70 71 71 72 72 72
61 64 66 69 71 72 73 72 72 72 72 72 72 71 69 66 65 64 64 64 63 64 64 65 65 65 66 66 65 66 66 66 66 66 66 68 69 70 71 71 72 71 70
61 63 65 68 70 69 70 73 72 72 72 72 70 68 67 64 63 63 64 64 63 63 63 63 63 64 66 66 66 66 66 66 66 66 67 67 69 70 70 70 71 72 71
59 62 64 65 67 67 67 69 72 70 69 68 67 66 65 62 62 63 64 63 62 62 63 64 64 64 65 65 65 65 66 65 66 66 67 67 68 70 70 71 71 70 70
55 56 61 62 64 64 64 64 64 64 63 63 63 62 63 62 62 62 63 63 62 62 62 63 64 64 63 64 63 65 64 64 66 66 66 68 68 70 70 70 70 70 67
51 54 57 60 61 60 58 58 59 60 61 61 61 62 61 60 60 60 61 60 61 61 62 62 62 63 63 63 63 63 63 64 65 66 67 67 68 69 70 70 70 70 68
45 50 54 57 57 57 57 58 58 59 59 58 59 61 60 59 59 59 59 59 59 60 60 60 61 62 63 63 63 62 62 63 64 65 66 66 68 69 70 70 71 70 69
43 48 53 55 56 57 58 59 58 58 59 59 59 59 59 59 58 59 59 59 59 59 59 59 60 61 62 62 62 61 61 61 63 65 66 66 68 68 69 70 71 70 70
44 50 54 55 56 57 58 58 58 58 59 59 59 59 60 59 59 59 59 59 59 59 59 59 59 61 61 61 61 61 61 61 62 64 66 65 68 68 69 70 70 70 69
47 52 55 56 57 58 58 58 58 58 59 59 60 60 60 60 59 59 59 59 59 59 59 59 59 60 60 60 61 61 61 61 62 63 65 66 67 68 68 70 70 70 69
53 53 56 57 58 58 58 57 58 59 59 60 60 61 61 61 60 59 59 59 59 59 59 59 59 59 59 60 60 60 61 61 62 63 65 66 67 68 68 69 70 69 69
53 55 56 58 58 57 57 57 58 59 59 60 61 61 61 61 61 59 59 59 59 59 59 58 57 59 58 59 60 60 60 61 62 64 64 65 67 68 69 69 68 69 68
54 55 56 57 57 57 57 57 58 59 59 60 61 61 61 61 61 59 59 59 59 59 58 58 58 59 59 60 61 59 60 61 62 64 63 64 66 67 67 67 68 68 69
55 55 55 56 57 56 57 57 58 58 59 59 60 61 61 61 61 59 59 59 59 59 58 58 58 58 59 60 58 59 59 60 61 63 65 64 64 66 66 67 68 68 67
54 55 55 56 56 56 58 58 59 59 59 59 60 60 61 61 61 59 58 59 59 58 57 57 58 58 59 59 57 57 55 58 61 62 64 64 64 66 66 66 67 67 67
54 54 55 56 56 58 58 58 58 57 58 58 58 59 60 61 61 61 60 59 59 58 57 57 58 58 58 59 59 57 54 53 58 62 62 64 64 64 64 66 66 66 66
53 55 55 56 58 58 58 57 56 56 55 57 58 58 59 59 61 61 60 59 58 58 57 57 58 59 59 57 59 60 59 59 56 56 62 62 64 63 63 64 65 65 65
55 54 56 57 58 58 58 57 56 55 57 57 57 57 58 59 61 60 60 59 58 58 58 58 58 58 59 59 59 59 59 60 59 58 57 59 62 62 63 63 64 65 64
54 55 56 57 57 58 58 57 56 55 55 55 56 57 58 59 60 60 59 59 58 58 58 59 59 58 59 59 60 59 60 60 58 59 57 58 58 60 62 63 63 64 63
Lifted_Index
1 -0 -3 -4 -2 -1 -0 0 1 2 2 2 3 4 4 4 4 5 5 6 6 6 6 6 6 6 6 5 5 5 4 3 1 -0 -1 -2 -2 -3 -3 -4 -4 -4 -4
1 -1 -3 -4 -3 -2 -1 -1 0 1 1 2 3 3 3 3 4 4 4 5 5 5 5 5 5 6 6 5 5 4 4 3 2 1 -1 -1 -2 -3 -3 -4 -4 -4 -4
1 -1 -3 -4 -3 -2 -2 -2 -1 -0 0 1 2 2 2 2 2 3 3 3 4 4 4 4 4 4 5 5 4 4 4 4 3 2 -0 -1 -2 -2 -3 -4 -5 -5 -5
1 -0 -3 -4 -3 -3 -2 -2 -2 -1 -1 0 1 1 2 1 1 2 2 2 3 3 3 3 3 3 4 4 4 3 3 3 3 2 1 -0 -1 -2 -3 -4 -4 -5 -5
1 -1 -2 -4 -4 -3 -3 -3 -3 -3 -2 -1 -0 0 0 0 0 1 1 2 2 2 2 3 3 3 3 3 3 2 2 2 3 2 1 0 -0 -1 -2 -3 -4 -4 -5
0 -1 -2 -4 -4 -4 -4 -4 -4 -4 -3 -2 -1 -1 -1 -1 -0 0 1 1 2 2 2 2 3 3 2 2 2 2 1 1 1 2 2 1 -0 -1 -2 -3 -4 -4 -4
-0 -1 -3 -4 -5 -5 -5 -5 -5 -4 -4 -3 -2 -2 -2 -1 -1 -0 0 1 1 2 2 2 2 2 2 1 1 1 1 0 0 1 1 1 -0 -1 -2 -3 -3 -3 -3
-1 -2 -3 -5 -6 -6 -6 -6 -6 -5 -5 -4 -3 -3 -2 -1 -1 0 1 1 1 2 2 2 1 1 1 0 0 0 0 0 -0 0 1 1 -0 -1 -2 -3 -3 -3 -2
-1 -1 -3 -5 -6 -7 -7 -7 -6 -6 -6 -5 -4 -3 -2 -1 0 1 1 2 2 2 2 2 1 1 0 0 0 0 0 0 0 0 0 0 -0 -1 -2 -3 -3 -2 -2
-1 -1 -3 -4 -6 -6 -6 -7 -7 -6 -6 -5 -4 -3 -1 0 1 2 2 2 2 2 2 2 1 1 1 0 0 0 0 0 0 -0 -0 -0 -1 -2 -2 -3 -3 -3 -2
-1 -1 -2 -3 -4 -5 -5 -5 -5 -5 -4 -3 -2 -1 0 1 2 2 2 2 2 2 2 1 1 1 1 1 1 1 1 1 0 -0 -0 -1 -1 -2 -2 -3 -3 -2 -2
-0 -1 -2 -3 -3 -3 -3 -3 -2 -2 -1 -1 -1 0 1 1 2 2 2 2 2 2 2 2 1 1 1 1 1 1 0 1 0 -0 -1 -1 -2 -2 -3 -3 -3 -2 -1
0 -0 -2 -3 -2 -2 -1 0 1 1 1 0 1 1 1 1 1 2 2 2 3 3 3 3 2 2 1 1 1 0 0 0 0 -0 -1 -1 -2 -2 -3 -3 -3 -2 -0
1 0 -1 -2 -1 -0 1 1 2 2 2 1 1 1 1 1 1 2 2 3 3 3 3 3 3 2 1 1 0 0 0 0 0 -0 -1 -2 -2 -3 -3 -4 -4 -2 -1
1 1 0 -0 -0 1 1 1 2 2 2 1 1 1 1 1 1 2 2 2 3 3 3 3 3 2 1 0 -0 -0 -0 0 0 -1 -1 -2 -3 -3 -4 -4 -4 -3 -2
1 1 1 0 1 1 1 1 1 1 1 1 1 1 1 1 1 1 2 2 2 3 3 3 3 2 1 0 -0 -0 -0 0 0 -1 -1 -2 -3 -3 -4 -4 -4 -4 -3
1 1 1 1 1 1 1 1 1 1 1 1 0 0 0 0 1 1 2 2 2 3 3 3 2 2 1 -0 -0 -1 -0 -0 -0 -1 -1 -2 -3 -4 -4 -4 -4 -4 -4
1 1 2 1 1 0 0 0 0 0 0 0 0 0 0 0 1 1 1 2 2 2 2 2 2 1 0 -0 -1 -1 -1 -1 -1 -2 -2 -2 -3 -4 -4 -4 -4 -4 -3
1 1 1 1 0 0 0 0 0 -0 -0 -0 -0 -0 0 0 0 1 1 2 2 2 1 1 1 1 0 -0 -1 -1 -1 -1 -2 -2 -3 -3 -3 -4 -4 -4 -4 -3 -3
1 1 1 0 0 0 0 0 -0 -0 -0 -0 -0 -0 -0 0 0 1 1 2 2 1 1 1 1 1 -0 -1 -1 -1 -1 -2 -2 -2 -3 -3 -3 -4 -3 -3 -3 -3 -3
1 1 1 0 0 0 0 0 -0 -0 -0 -0 -0 -0 -0 -0 0 1 2 2 1 0 0 1 1 0 -0 -1 -1 -1 -1 -2 -2 -2 -3 -3 -3 -3 -3 -3 -3 -3 -2
1 1 1 1 1 0 0 -0 -0 -0 0 0 -0 -0 -0 -0 0 1 1 1 1 0 0 1 0 0 -0 -1 -1 -1 -1 -1 -2 -2 -2 -2 -2 -2 -2 -2 -2 -2 -2
1 1 1 1 1 0 -0 -0 0 1 1 1 0 0 0 0 -0 0 1 1 0 0 0 1 0 0 -0 -0 -0 -0 -0 -1 -1 -1 -2 -2 -2 -2 -2 -2 -1 -1 -1
2 2 1 1 0 -0 -0 -0 1 1 2 1 1 1 0 0 -0 -0 0 0 0 0 1 1 1 0 -0 -0 -0 -0 -0 -1 -1 -1 -1 -1 -1 -1 -1 -1 -0 -0 -0
2 2 2 1 0 -0 -0 0 1 2 2 2 1 1 0 0 -0 -0 0 0 0 0 1 1 1 0 -0 -0 -0 -0 -1 -1 -1 -1 -1 -1 -1 -1 -1 -0 0 0 0
3 2 1 1 -0 -0 -0 0 1 2 2 2 1 1 0 -0 -0 -0 0 0 0 1 1 1 0 -0 -0 -0 -0 -0 -1 -1 -1 -0 -0 -1 -1 -1 -0 -0 0 1 1